Regional Weather Roundup
Issued by NWS

Home | Current Version | Previous Version | Text Only | Print | Product List | Glossary Off
Versions: 1 2 3 4 5 6 7 8 9 10 11 12 13 14 15 16 17 18 19 20 21 22 23 24 25 26 27 28 29 30 31 32 33 34 35 36 37 38 39 40 41 42 43 44 45 46 47 48 49 50

000
ASUS43 KLOT 131306
RWRIL

ILLINOIS REGIONAL WEATHER ROUNDUP
NATIONAL WEATHER SERVICE CHICAGO/ROMEOVILLE IL
800 AM CDT SUN JUL 13 2014

NOTE: "FAIR" INDICATES FEW OR NO CLOUDS BELOW 12,000 FEET WITH NO
SIGNIFICANT WEATHER AND/OR OBSTRUCTIONS TO VISIBILITY.

* THESE STATIONS ARE NOT UNDER NWS QUALITY CONTROL. THEY ALSO MAY NOT
  REPORT WEATHER SUCH AS PRECIPITATION OR FOG.

ILZ001-002-007-009-015-016-024-131400-
NORTHWEST ILLINOIS

CITY           SKY/WX    TMP DP  RH WIND       PRES   REMARKS
MOLINE         CLOUDY    68  65  90 W7        29.99R
STERLING*      CLOUDY    66  63  88 NW8       29.98R
SAVANNA*       CLOUDY    68  64  88 W7        29.97S
$$

ILZ003-004-008-010-011-017-018-131400-
NORTH CENTRAL ILLINOIS

CITY           SKY/WX    TMP DP  RH WIND       PRES   REMARKS
ROCKFORD       PTSUNNY   66  62  87 NW10      29.98S
FREEPORT*      CLOUDY    62  61  96 W7        29.99S FOG
ROCHELLE*      PTSUNNY   66  64  93 W7        29.98R
DE KALB*       CLOUDY    65  64  94 NW9       29.98R
PERU*          CLOUDY    67  65  93 NW7       29.99R
$$

ILZ005-006-012>014-019>023-131400-
NORTHEAST ILLINOIS

CITY           SKY/WX    TMP DP  RH WIND       PRES   REMARKS
CHICAGO-OHARE  PTSUNNY   68  62  81 W9        29.95R
CHICAGO-MIDWAY PTSUNNY   72  67  84 W10       29.95R
AURORA         CLOUDY    68  65  90 W8        29.97R
LANSING*       CLOUDY    71  67  85 W7        29.94S
JOLIET*        CLOUDY    69  65  87 W5        29.97R
WAUKEGAN       PTSUNNY   68  64  87 VRB6      29.92S
DUPAGE AIRPORT CLOUDY    68  64  87 NW7       29.96R
KANKAKEE*      CLOUDY    71  69  91 W7        29.96R
WHEELING       PTSUNNY   69  65  86 W6        29.95R
MORRIS*        PTSUNNY   70  67  92 NW8       29.97R
ROMEOVILLE*    CLOUDY    69  66  91 NW8       29.97R
NORTHERLY ISL    N/A     71  65  81 W12         N/A
$$

LMZ740>746-131400-
SOUTHERN LAKE MICHIGAN

STATION/POSITION SKY/WX   TEMP    WIND        PRES    VSBY  WAVE
                          AIR SEA DIR/SP/G                  HT/PER
                          (F)     (DEG/KT/KT) (MB)    (MI)  (FT/S)
SOUTHERN BUOY              65 64  260/  8/  8 1013.1R         1/ 4
WAUKEGAN HARBOR            67     290/  6/  9 1014.6S
HARRISON CRIB              68     290/ 11/ 13   N/A
BURNHAM HARBOR             70     270/ 10       N/A
CALUMET HARBOR             72     270/  4/  7 1014.6R
MICHIGAN CITY              70     270/ 11/ 14   N/A
$$

ILZ025>027-034>036-040-047-049-050-058-095>099-131400-
WEST-CENTRAL ILLINOIS

CITY           SKY/WX    TMP DP  RH WIND       PRES   REMARKS
QUINCY         CLOUDY    73  71  93 NW6       30.00S
GALESBURG*     CLOUDY    68  67  96 W6        30.00R
MACOMB*        CLOUDY    68  68 100 NW6       30.02R
JACKSONVILLE*  CLOUDY    74  73  94 CALM      29.99S
PITTSFIELD*    DRIZZLE   74  71  90 SW3       30.00S
$$

ILZ028>032-037-038-041>044-048-051>054-059>061-131400-
CENTRAL ILLINOIS

CITY           SKY/WX    TMP DP  RH WIND       PRES   REMARKS
PONTIAC        PTSUNNY   72  70  94 NW10      29.97S
BLOOMINGTON    CLOUDY    72  69  90 VRB6      30.00R
DECATUR        LGT RAIN  73  71  93 W7        29.99F
PEORIA         CLOUDY    73  67  81 CALM      29.99R
LACON*         CLOUDY    69  65  86 W5        29.98R
LINCOLN*       CLOUDY    74  73  94 SW3       29.96S
SPRINGFIELD    CLOUDY    74  71  91 CALM      29.99R
TAYLORVILLE    RAIN      70  70 100 SW7       29.99F
$$

ILZ033-039-045-046-055>057-062-063-131400-
EAST-CENTRAL ILLINOIS

CITY           SKY/WX    TMP DP  RH WIND       PRES   REMARKS
CHAMPAIGN      CLOUDY    73  71  93 W10       29.98F
RANTOUL*       CLOUDY    74  70  86 W8        29.98S
MATTOON        CLOUDY    74  70  87 SW7       29.99S
PARIS*         DRIZZLE   73  71  94 W8        29.99S
$$

ILZ079-100>102-131400-
SOUTHWEST ILLINOIS

CITY           SKY/WX    TMP DP  RH WIND       PRES   REMARKS
ALTON          MOSUNNY   81  75  83 CALM      30.01S HX  86
BELLEVILLE     MOSUNNY   80  75  85 SW5       30.00F HX  84
CAHOKIA*       MOSUNNY   81  71  71 CALM      30.00F HX  85
SPARTA*        MOSUNNY   77  72  83 CALM      30.04R
$$

ILZ064>066-069>071-074>076-080>082-084>086-088>090-092>094-131400-
SOUTH-CENTRAL ILLINOIS

CITY           SKY/WX    TMP DP  RH WIND       PRES   REMARKS
CARBONDALE     SUNNY     81  72  74 SW7       30.02S HX  85
CAIRO*         MOSUNNY   80  74  84 S5        30.05S HX  84
MARION         PTSUNNY   82  73  74 SW6         N/A  HX  88
MT. VERNON     MOSUNNY   81  70  69 SW7       30.02F HX  84
CENTRALIA*     MOSUNNY   87  73  62 W7        30.02S HX  93
SALEM*         MOSUNNY   80  75  84 W5        30.02S HX  85
METROPOLIS*    MOSUNNY   80  72  75 S5        30.05R HX  83
$$

ILZ067-068-072-073-078-083-087-091-131400-
SOUTHEAST ILLINOIS

CITY           SKY/WX    TMP DP  RH WIND       PRES   REMARKS
FLORA*         MOSUNNY   80  72  77 W8        30.01F HX  83
HARRISBURG*    SUNNY     78  76  93 SW3       30.03S HX  80
ROBINSON*      PTSUNNY   80  76  87 SW6       30.00F HX  86
CARMI*         MOSUNNY   81  75  82 SW7       30.01S HX  87
$$

ABBREVIATIONS USED IN REMARKS
   TC - TEMPERATURE IN CELSIUS
  WCI - WIND CHILL INDEX
   HX - HEAT INDEX
  VSB - VISIBILITY
$$



USA.gov is the U.S. government's official web portal to all federal, state and local government web resources and services.